Location: Unspecified
(0.0000°N, 0.0000°E)
Time: 14:22:55
(UTC+00:00)

Transit 2A - All Passes

Search period start: 28 July 2014 00:00
Search period end: 07 August 2014 00:00
Orbit: 603 x 960 km, 66.7° (Epoch: 27 July)

Date Brightness Start Highest point End Pass type
(mag) Time Alt. Az. Time Alt. Az. Time Alt. Az.
28 Jul - 10:25:15 10° N 10:30:20 58° ENE 10:35:58 10° SSE daylight
28 Jul - 21:21:53 10° SE 21:23:30 11° ESE 21:25:05 10° E night (unlit)
28 Jul - 23:01:37 10° SW 23:06:42 42° WNW 23:11:17 10° N night (unlit)
29 Jul - 09:52:15 10° N 09:56:56 35° ENE 10:02:05 10° SE daylight
29 Jul - 11:36:46 10° WNW 11:40:04 16° WSW 11:43:33 10° SSW daylight
29 Jul - 22:27:53 10° SSW 22:33:18 73° WNW 22:38:08 10° NNE night (unlit)
30 Jul - 09:19:40 10° NNE 09:23:34 21° ENE 09:27:45 10° ESE daylight
30 Jul - 11:02:06 10° NW 11:06:31 26° WSW 11:11:18 10° SSW daylight
30 Jul - 21:54:28 10° SSW 21:59:52 66° ESE 22:04:42 10° NNE night (unlit)
31 Jul - 08:47:59 10° NE 08:50:12 13° ENE 08:52:29 10° E daylight
31 Jul - 10:28:01 10° NW 10:33:00 43° WSW 10:38:30 10° S daylight
31 Jul - 21:21:22 10° S 21:26:23 38° ESE 21:30:56 10° NE night (unlit)
31 Jul - 23:07:27 10° W 23:09:10 12° WNW 23:10:51 10° NW night (unlit)
01 Aug - 09:54:18 10° NNW 09:59:32 71° WSW 10:05:21 10° SSE daylight
01 Aug - 20:48:39 10° SSE 20:52:52 23° ESE 20:56:46 10° ENE night (unlit)
01 Aug - 22:32:00 10° WSW 22:35:48 20° WNW 22:39:21 10° NNW night (unlit)
02 Aug - 09:20:53 10° NNW 09:26:06 71° ENE 09:31:54 10° SSE daylight
02 Aug - 20:16:40 10° SE 20:19:19 14° ESE 20:21:51 10° E night (unlit)
02 Aug - 21:57:40 10° SW 22:02:26 34° WNW 22:06:47 10° N night (unlit)
03 Aug - 08:47:45 10° N 08:52:42 43° ENE 08:58:09 10° SE daylight
03 Aug - 10:33:14 10° W 10:35:53 14° WSW 10:38:39 10° SW daylight
03 Aug - 21:23:47 10° SSW 21:29:03 59° WNW 21:33:46 10° N night (unlit)
04 Aug - 08:14:58 10° NNE 08:19:19 26° ENE 08:24:01 10° SE daylight
04 Aug - 09:58:11 10° WNW 10:02:20 22° WSW 10:06:47 10° SSW daylight
04 Aug - 20:50:15 10° SSW 20:55:37 81° ESE 21:00:26 10° NNE night (unlit)
05 Aug - 07:42:47 10° NE 07:45:56 16° ENE 07:49:16 10° ESE daylight
05 Aug - 09:23:56 10° NW 09:28:49 36° WSW 09:34:09 10° S daylight
05 Aug - 20:17:01 10° S 20:22:10 47° ESE 20:26:47 10° NE night (unlit)
06 Aug - 08:50:05 10° NNW 08:55:19 59° WSW 09:01:07 10° S daylight
06 Aug - 19:44:09 10° S 19:48:39 28° ESE 19:52:48 10° NE night (unlit)
06 Aug - 21:28:24 10° WSW 21:31:31 16° WNW 21:34:29 10° NNW night (unlit)
